Portada
METAR-TAF:

METAR-TAF

Aeroports :

Munising, Michigan, Estats Units d'Amèrica

latitud: 46-24N, longitud: 086-39W, altitud: 187 m

Observació

L'informe es va fer fa 27 minuts, a les 00:56 UTC
Vent calma
Temperatura -14°C
Humitat 78%
Pressió 1023 hPa

METAR: KP53 200056Z AUTO 00000KT M14/M17 A3021 RMK AO1 SLP247 P0001 T11391167

Hora: 20:23 (01:23 UTC)


TAF: manca

Observacions i pronòstics meteorològics de més de 4000 aeroports (METAR i TAF).

Les estacions disponibles són els punts grocs i vermells al mapa.

Posi el ratolí al punt desitjat per veure el nom de l'estació.

Feu clic per veure les observacions i els pronòstics meteorològics.

Per canviar el mapa: feu clic els botons verds amb una creu de color negre per apropar; al botó verd amb un guió per allunyar la imatge; o en les fletxes verdes per a mapes adjacents.


METAR-TAF: